Tillbaka till svenska Fidonet
English   Information   Debug  
FILM   0/18
FNEWS_PUBLISH   4983
FN_SYSOP   42232
FN_SYSOP_OLD1   71952
FTP_FIDO   0/2
FTSC_PUBLIC   0/13976
FUNNY   0/4886
GENEALOGY.EUR   0/71
GET_INFO   105
GOLDED   0/408
HAM   4664/16712
HOLYSMOKE   0/6791
HOT_SITES   0/1
HTMLEDIT   0/71
HUB203   466
HUB_100   264
HUB_400   39
HUMOR   0/29
IC   0/2851
INTERNET   0/424
INTERUSER   0/3
IP_CONNECT   719
JAMNNTPD   0/233
JAMTLAND   0/47
KATTY_KORNER   0/41
LAN   0/16
LINUX-USER   0/19
LINUXHELP   0/1155
LINUX   0/22382
LINUX_BBS   0/957
mail   18.68
mail_fore_ok   249
MENSA   0/341
MODERATOR   0/102
MONTE   0/992
MOSCOW_OKLAHOMA   0/1245
MUFFIN   0/783
MUSIC   0/321
N203_STAT   938
N203_SYSCHAT   313
NET203   321
NET204   69
NET_DEV   0/10
NORD.ADMIN   0/101
NORD.CHAT   0/2572
NORD.FIDONET   189
NORD.HARDWARE   0/28
NORD.KULTUR   0/114
NORD.PROG   0/32
NORD.SOFTWARE   0/88
NORD.TEKNIK   0/58
NORD   0/453
OCCULT_CHAT   0/93
OS2BBS   0/787
OS2DOSBBS   0/580
OS2HW   0/42
OS2INET   0/37
OS2LAN   0/134
OS2PROG   0/36
OS2REXX   0/113
OS2USER-L   207
OS2   0/4831
OSDEBATE   0/18996
PASCAL   0/490
PERL   0/457
PHP   0/45
POINTS   0/405
POLITICS   0/29554
POL_INC   0/14731
PSION   103
R20_ADMIN   1133
R20_AMATORRADIO   0/2
R20_BEST_OF_FIDONET   16
R20_CHAT   0/897
R20_DEPP   0/3
R20_DEV   400
R20_ECHO2   1889
R20_ECHOPRES   0/35
R20_ESTAT   0/719
R20_FIDONETPROG...
...RAM.MYPOINT
  0/2
R20_FIDONETPROGRAM   0/22
R20_FIDONET   0/248
R20_FILEFIND   0/24
R20_FILEFOUND   0/22
R20_HIFI   0/3
R20_INFO2   3781
R20_INTERNET   0/12940
R20_INTRESSE   0/60
R20_INTR_KOM   0/99
R20_KANDIDAT.CHAT   42
R20_KANDIDAT   28
R20_KOM_DEV   112
R20_KONTROLL   0/13360
R20_KORSET   0/18
R20_LOKALTRAFIK   0/24
R20_MODERATOR   0/1852
R20_NC   76
R20_NET200   245
R20_NETWORK.OTH...
...ERNETS
  0/13
R20_OPERATIVSYS...
...TEM.LINUX
  0/44
R20_PROGRAMVAROR   0/1
R20_REC2NEC   534
R20_SFOSM   0/341
R20_SF   0/108
R20_SPRAK.ENGLISH   0/1
R20_SQUISH   107
R20_TEST   2
R20_WORST_OF_FIDONET   20
RAR   0/9
RA_MULTI   106
RA_UTIL   0/162
REGCON.EUR   0/2069
REGCON   0/13
SCIENCE   0/1206
SF   0/239
SHAREWARE_SUPPORT   0/5146
SHAREWRE   0/14
SIMPSONS   0/169
STATS_OLD1   0/2539.065
STATS_OLD2   0/2530
STATS_OLD3   0/2395.095
STATS_OLD4   0/1692.25
SURVIVOR   0/495
SYSOPS_CORNER   0/3
SYSOP   0/84
TAGLINES   0/112
TEAMOS2   0/4530
TECH   0/2617
TEST.444   0/105
TRAPDOOR   0/19
TREK   0/755
TUB   0/290
UFO   0/40
UNIX   0/1316
USA_EURLINK   0/102
USR_MODEMS   0/1
VATICAN   0/2740
VIETNAM_VETS   0/14
VIRUS   0/378
VIRUS_INFO   0/201
VISUAL_BASIC   0/473
WHITEHOUSE   0/5187
WIN2000   0/101
WIN32   0/30
WIN95   0/4291
WIN95_OLD1   0/70272
WINDOWS   0/1517
WWB_SYSOP   0/419
WWB_TECH   0/810
ZCC-PUBLIC   0/1
ZEC   4

 
4DOS   0/134
ABORTION   0/7
ALASKA_CHAT   0/506
ALLFIX_FILE   0/1313
ALLFIX_FILE_OLD1   0/7997
ALT_DOS   0/152
AMATEUR_RADIO   0/1039
AMIGASALE   0/14
AMIGA   0/331
AMIGA_INT   0/1
AMIGA_PROG   0/20
AMIGA_SYSOP   0/26
ANIME   0/15
ARGUS   0/924
ASCII_ART   0/340
ASIAN_LINK   0/651
ASTRONOMY   0/417
AUDIO   0/92
AUTOMOBILE_RACING   0/105
BABYLON5   0/17862
BAG   135
BATPOWER   0/361
BBBS.ENGLISH   0/382
BBSLAW   0/109
BBS_ADS   0/5290
BBS_INTERNET   0/507
BIBLE   0/3563
BINKD   0/1119
BINKLEY   0/215
BLUEWAVE   0/2173
CABLE_MODEMS   0/25
CBM   0/46
CDRECORD   0/66
CDROM   0/20
CLASSIC_COMPUTER   0/378
COMICS   0/15
CONSPRCY   0/899
COOKING   42003
COOKING_OLD1   0/24719
COOKING_OLD2   0/40862
COOKING_OLD3   0/37489
COOKING_OLD4   0/35496
COOKING_OLD5   9370
C_ECHO   0/189
C_PLUSPLUS   0/31
DIRTY_DOZEN   0/201
DOORGAMES   0/2333
DOS_INTERNET   0/196
duplikat   6102
ECHOLIST   0/18295
EC_SUPPORT   0/318
ELECTRONICS   0/359
ELEKTRONIK.GER   1534
ENET.LINGUISTIC   0/13
ENET.POLITICS   0/4
ENET.SOFT   0/11701
ENET.SYSOP   34332
ENET.TALKS   0/32
ENGLISH_TUTOR   0/2000
EVOLUTION   0/1335
FDECHO   0/217
FDN_ANNOUNCE   0/7068
FIDONEWS   25122
FIDONEWS_OLD1   0/49742
FIDONEWS_OLD2   0/35949
FIDONEWS_OLD3   0/30874
FIDONEWS_OLD4   0/37224
FIDO_SYSOP   12973
FIDO_UTIL   0/180
FILEFIND   0/209
FILEGATE   0/212
Möte HAM, 16712 texter
 lista första sista föregående nästa
Text 5541, 1101 rader
Skriven 2012-10-04 23:00:32 av Amsat List (1:323/120.0)
Ärende: [keps] orb12278.amsa
============================
[keps] orb12278.amsa

Sender: keps-bounces@amsat.org
Return-Path: <keps-bounces@amsat.org>
X-Rcpt: craig.healy@chowda.com
X-UIDL: 1349404235.18719

SB KEPS @ AMSAT  $ORB12278.O
Orbital Elements  12278.OSCAR

HR AMSAT ORBITAL ELEMENTS FOR OSCAR SATELLITES
FROM WA5QGD FORT WORTH,TX October 4, 2012
BID: ORB12278.O
TO ALL RADIO AMATEURS BT

Satellite: AO-07
Catalog number: 07530
Epoch time:      12277.52119834
Element set:    0498
Inclination:      101.4117 deg
RA of node:       270.5822 deg
Eccentricity:    0.0012150
Arg of perigee:   070.3436 deg
Mean anomaly:     289.8951 deg
Mean motion:   12.53591734 rev/day
Decay rate:       -2.7e-07 rev/day^2
Epoch rev:           73362
Checksum:              292

Satellite: FO-29
Catalog number: 24278
Epoch time:      12277.81841158
Element set:     947
Inclination:      098.5874 deg
RA of node:       004.2710 deg
Eccentricity:    0.0351205
Arg of perigee:   108.0888 deg
Mean anomaly:     255.8833 deg
Mean motion:   13.52990391 rev/day
Decay rate:        9.0e-07 rev/day^2
Epoch rev:           79664
Checksum:              341

Satellite: SO-33
Catalog number: 25509
Epoch time:      12278.54667848
Element set:     335
Inclination:      031.4302 deg
RA of node:       074.7712 deg
Eccentricity:    0.0351442
Arg of perigee:   080.3375 deg
Mean anomaly:     283.6733 deg
Mean motion:   14.28829498 rev/day
Decay rate:       6.05e-06 rev/day^2
Epoch rev:           72830
Checksum:              320

Satellite: RS-22
Catalog number: 27939
Epoch time:      12278.61912168
Element set:     783
Inclination:      097.8025 deg
RA of node:       113.7933 deg
Eccentricity:    0.0012334
Arg of perigee:   280.6807 deg
Mean anomaly:     079.2990 deg
Mean motion:   14.64156007 rev/day
Decay rate:       9.49e-06 rev/day^2
Epoch rev:           48189
Checksum:              340

Satellite: VO-52
Catalog number: 28650
Epoch time:      12278.62311789
Element set:     225
Inclination:      097.5888 deg
RA of node:       304.1948 deg
Eccentricity:    0.0027420
Arg of perigee:   043.0709 deg
Mean anomaly:     317.2609 deg
Mean motion:   14.83230822 rev/day
Decay rate:      1.692e-05 rev/day^2
Epoch rev:           40119
Checksum:              309

Satellite: HO-68
Catalog number: 36122
Epoch time:      12278.74201514
Element set:     888
Inclination:      100.3485 deg
RA of node:       335.8173 deg
Eccentricity:    0.0007204
Arg of perigee:   217.5058 deg
Mean anomaly:     142.5561 deg
Mean motion:   13.16298360 rev/day
Decay rate:       -4.4e-07 rev/day^2
Epoch rev:           13480
Checksum:              287

/EX
SB KEPS @ AMSAT  $ORB12278.D
Orbital Elements  12278.MICROS

HR AMSAT ORBITAL ELEMENTS FOR THE MICROSATS
FROM WA5QGD FORT WORTH,TX October 4, 2012
BID: ORB12278.D
TO ALL RADIO AMATEURS BT

Satellite: UO-11
Catalog number: 14781
Epoch time:      12277.73000793
Element set:    0999
Inclination:      097.9424 deg
RA of node:       336.2337 deg
Eccentricity:    0.0009936
Arg of perigee:   045.3868 deg
Mean anomaly:     314.8152 deg
Mean motion:   14.80585072 rev/day
Decay rate:      1.117e-05 rev/day^2
Epoch rev:           53599
Checksum:              335

Satellite: AO-16
Catalog number: 20439
Epoch time:      12277.87341209
Element set:    0588
Inclination:      098.4386 deg
RA of node:       218.2506 deg
Eccentricity:    0.0010312
Arg of perigee:   193.8858 deg
Mean anomaly:     166.2040 deg
Mean motion:   14.32091026 rev/day
Decay rate:       2.48e-06 rev/day^2
Epoch rev:           18555
Checksum:              305

Satellite: LO-19
Catalog number: 20442
Epoch time:      12277.88000219
Element set:    0504
Inclination:      098.4067 deg
RA of node:       220.8894 deg
Eccentricity:    0.0011417
Arg of perigee:   184.6680 deg
Mean anomaly:     175.4392 deg
Mean motion:   14.32307134 rev/day
Decay rate:       2.34e-06 rev/day^2
Epoch rev:           18574
Checksum:              295

Satellite: AO-27
Catalog number: 22825
Epoch time:      12277.87908027
Element set:     211
Inclination:      098.5842 deg
RA of node:       219.0489 deg
Eccentricity:    0.0007947
Arg of perigee:   326.5123 deg
Mean anomaly:     033.5554 deg
Mean motion:   14.29492068 rev/day
Decay rate:       1.73e-06 rev/day^2
Epoch rev:           99200
Checksum:              321

Satellite: IO-26
Catalog number: 22826
Epoch time:      12277.85906040
Element set:    0977
Inclination:      098.5781 deg
RA of node:       219.3718 deg
Eccentricity:    0.0008627
Arg of perigee:   320.5862 deg
Mean anomaly:     039.4687 deg
Mean motion:   14.29769124 rev/day
Decay rate:       2.56e-06 rev/day^2
Epoch rev:           99213
Checksum:              349

Satellite: GO-32
Catalog number: 25397
Epoch time:      12277.51904577
Element set:     889
Inclination:      098.3764 deg
RA of node:       250.9688 deg
Eccentricity:    0.0001349
Arg of perigee:   011.0230 deg
Mean anomaly:     349.0963 deg
Mean motion:   14.23296970 rev/day
Decay rate:       2.30e-06 rev/day^2
Epoch rev:           73943
Checksum:              330

Satellite: NO-44
Catalog number: 26931
Epoch time:      12277.74299307
Element set:    0152
Inclination:      067.0520 deg
RA of node:       200.5477 deg
Eccentricity:    0.0006140
Arg of perigee:   250.6072 deg
Mean anomaly:     109.4372 deg
Mean motion:   14.29837561 rev/day
Decay rate:       1.63e-06 rev/day^2
Epoch rev:           57476
Checksum:              296

Satellite: SO-50
Catalog number: 27607
Epoch time:      12278.58434690
Element set:     881
Inclination:      064.5586 deg
RA of node:       322.0836 deg
Eccentricity:    0.0075761
Arg of perigee:   226.6430 deg
Mean anomaly:     132.8333 deg
Mean motion:   14.72553757 rev/day
Decay rate:      1.272e-05 rev/day^2
Epoch rev:           52607
Checksum:              320

